Location: ???????
(55.4362°N, 38.1183°E)
Time: 01:05:58
(UTC+00:00)

USA 267 - Visible Passes

Search period start: 24 October 2021 00:00
Search period end: 03 November 2021 00:00
Orbit: 1099 x 1109 km, 123.0° (Epoch: 22 October)

Date Brightness Start Highest point End Pass type
(mag) Time Alt. Az. Time Alt. Az. Time Alt. Az.
24 Oct 5.1 16:11:55 10° S 16:17:13 26° SW 16:22:34 10° WNW visible
25 Oct 4.4 15:27:50 10° SSE 15:33:58 42° SW 15:40:09 10° WNW visible
25 Oct 5.6 17:15:05 10° SSW 17:18:20 14° WSW 17:21:35 10° W visible
26 Oct 3.8 14:44:27 10° SE 14:50:55 62° SSW 14:57:26 10° WNW visible
26 Oct 5.0 16:29:33 10° S 16:34:51 26° SW 16:40:10 10° WNW visible
27 Oct 4.3 15:45:28 10° SSE 15:51:35 42° SW 15:57:46 10° WNW visible
27 Oct 5.6 17:32:45 10° SSW 17:35:58 14° WSW 17:39:11 10° W visible
28 Oct 3.7 15:02:04 10° SE 15:08:33 62° SSW 15:15:03 10° WNW visible
28 Oct 5.0 16:47:12 10° S 16:52:29 26° SW 16:57:47 10° WNW visible
29 Oct 4.3 16:03:06 10° SSE 16:09:13 42° SW 16:15:23 10° WNW visible
29 Oct 5.5 17:50:25 10° SSW 17:53:35 14° WSW 17:56:46 10° W visible
30 Oct 3.7 15:19:42 10° SE 15:26:10 62° SSW 15:32:40 10° WNW visible
30 Oct 4.9 17:05:31 13° S 17:10:06 26° SW 17:15:24 10° WNW visible
31 Oct 3.4 14:36:43 10° ESE 14:43:16 82° SSW 14:49:52 10° WNW visible
31 Oct 4.2 16:21:26 13° SSE 16:26:50 41° SW 16:33:00 10° WNW visible
31 Oct 5.4 18:08:49 11° SW 18:11:13 14° WSW 18:14:21 10° W visible
01 Nov 3.6 15:37:20 10° SE 15:43:47 62° SSW 15:50:17 10° WNW visible
01 Nov 4.9 17:24:42 18° SSW 17:27:44 25° SW 17:33:00 10° WNW visible
02 Nov 3.4 14:54:20 10° ESE 15:00:54 82° SSW 15:07:29 10° WNW visible
02 Nov 4.2 16:40:33 21° SSE 16:44:28 41° SW 16:50:37 10° WNW visible
02 Nov 5.4 18:27:55 13° SW 18:28:50 14° WSW 18:31:56 10° W visible
